Retour au catalogue

STARLINK-32583

ActifCommunicationsVLEO
NORAD 61955·PAYLOAD·🇺🇸 United States

Lancé Nov 14, 2024 depuis Vandenberg Space Force Base

Loading…

Prochains Passages (prochaines 24 heures)

TLE

FraisSource: CelesTrak SupGP

Époque: Sep 14, 2026, 15:14 UTC

1 61955C 24209S   26257.63520833  .00029075  00000+0  85949-3 0  2572
2 61955  53.1605 335.3879 0001162  79.4697  48.6919 15.34359686    16

Suivez STARLINK-32583 en temps réel avec AllMySat

Download on the App Store